Weather observations for the past three days for
Savoonga Airport
Imperial (Metric)
Date Time (akdt) Wind (mph) Vis. (mi.) Weather Sky Cond. Temperature (ºF) Relative Humidity Wind Chill (°F) Heat Index (°F) Pressure Precipitation (in)
Air Dwpt 6 hour altimeter (in) sea level (mb) 1 hr 3 hr 6 hr
Max. Min.
20 15:56 E 10 10.00 Light Rain SCT080 OVC090 55.9 46 57 42.1 70% 30.14 1020.6
20 14:56 Calm 10.00 Light Rain FEW050 BKN075 OVC095 55.9 44.1 65% 30.15 1020.8
20 13:56 N 7 10.00 Fair CLR 55 42.1 62% 30.15 1021.0
20 12:56 E 10 9.00 A Few Clouds FEW100 48.9 43 80% 45 30.16 1021.2
20 11:56 E 5 10.00 Fair CLR 44.1 42.1 93% 42 30.15 1021.0
20 10:56 NE 6 10.00 Fair CLR 43 41 93% 40 30.16 1021.2
20 09:56 NE 6 10.00 Fair CLR 42.1 41 42.1 37.9 96% 39 30.16 1021.4
20 08:56 N 3 10.00 Partly Cloudy SCT003 42.1 41 96% 30.17 1021.6
20 07:56 Calm 10.00 Mostly Cloudy BKN003 41 41 100% 30.17 1021.6
20 06:56 W 6 10.00 Fair CLR 39.9 39.9 100% 36 30.16 1021.3
20 05:56 S 3 10.00 Fair CLR 39.9 39 97% 30.16 1021.4
20 04:56 E 6 9.00 A Few Clouds FEW002 41 39.9 96% 38 30.17 1021.7
20 03:56 E 9 10.00 Fair CLR 42.1 39.9 59 41 92% 37 30.18 1021.8
20 02:56 E 6 10.00 Fair CLR 42.1 39.9 92% 39 30.18 1022.0
20 01:56 E 8 6.00 Fog/Mist CLR 44.1 41 89% 40 30.18 1022.0
20 00:56 Calm 10.00 Fair CLR 48.9 41 74% 30.17 1021.6
19 23:56 NE 6 10.00 Fair CLR 46.9 43 86% 45 30.16 1021.2
19 22:56 N 5 10.00 Fair CLR 52 43 72% 30.15 1021.1
19 21:56 E 9 10.00 Fair CLR 57.9 43 62.1 54 58% 30.15 1021.1
19 20:56 SW 13 10.00 Fair CLR 59 39.9 49% 30.14 1020.6
19 19:56 SW 17 G 25 10.00 Fair CLR 57 42.1 58% 30.13 1020.4
19 17:56 SW 21 10.00 Fair and Breezy CLR 57 43 60% 30.12 1019.9
19 16:56 SW 24 G 31 10.00 Fair and Breezy CLR 54 42.1 64% 30.1 1019.4
19 15:56 SW 20 10.00 Fair CLR 54 43 59 48 67% 30.12 1019.8
19 14:56 SW 20 10.00 Fair CLR 57 44.1 62% 30.1 1019.4
19 13:56 SW 18 10.00 Fair CLR 55.9 43 62% 30.09 1018.9
19 12:56 SW 20 10.00 Fair CLR 55.9 43 62% 30.08 1018.7
19 11:56 SW 20 G 28 10.00 Fair CLR 53.1 45 74% 30.07 1018.3
19 10:56 SW 17 10.00 Fair CLR 50 43 77% 45 30.06 1017.9
19 09:56 SW 16 10.00 Fair CLR 48 39.9 48 42.1 74% 42 30.06 1017.9
19 08:56 SW 23 10.00 Fair and Breezy CLR 45 39.9 83% 37 30.04 1017.2
19 07:56 SW 17 G 29 10.00 Fair CLR 43 39 86% 36 30.04 1017.2
19 06:56 SW 22 G 30 10.00 Fair and Breezy CLR 42.1 39.9 92% 33 30.03 1016.8
19 05:56 W 24 G 32 10.00 Overcast and Breezy OVC005 42.1 41 96% 33 30.02 1016.6
19 04:56 SW 24 G 30 10.00 Overcast and Breezy OVC011 43 42.1 97% 34 30.02 1016.7
19 03:56 SW 25 G 32 10.00 Overcast and Breezy OVC015 44.1 42.1 46.9 44.1 93% 35 30.01 1016.4
19 02:56 SW 26 10.00 Overcast and Windy OVC015 46 43 89% 38 30.02 1016.4
19 01:56 SW 25 G 33 10.00 Overcast and Breezy OVC015 46.9 44.1 90% 39 30 1016.0
19 00:56 SW 26 10.00 Overcast and Windy OVC015 46.9 44.1 90% 39 29.99 1015.7
18 23:56 SW 26 G 32 10.00 Overcast and Windy OVC015 46.9 44.1 90% 39 29.99 1015.6
18 22:56 SW 25 G 33 10.00 Overcast and Breezy OVC015 46.9 44.1 90% 39 29.98 1015.3
18 21:56 SW 25 G 31 10.00 Overcast and Breezy OVC015 48 45 53.1 48 89% 41 29.97 1014.9
18 20:56 SW 24 G 30 10.00 Overcast and Breezy OVC011 48.9 46 90% 42 29.97 1014.7
18 19:56 SW 24 G 31 10.00 Overcast and Breezy OVC013 51.1 46.9 86% 29.96 1014.7
18 18:56 W 26 G 32 10.00 A Few Clouds and Windy FEW013 50 46 86% 43 29.96 1014.6
18 17:56 W 23 G 30 10.00 Fair and Breezy CLR 50 46 86% 44 29.96 1014.4
18 16:56 W 23 G 30 10.00 Fair and Breezy CLR 48.9 46 90% 42 29.95 1014.3
18 15:56 W 25 G 31 10.00 Fair and Breezy CLR 48.9 45 52 45 86% 42 29.94 1013.9
18 14:56 W 17 10.00 Fair CLR 48 45 89% 42 29.95 1014.1
18 13:56 W 18 10.00 Overcast OVC013 46.9 44.1 90% 40 29.94 1013.9
18 12:56 W 20 G 25 10.00 Fair CLR 51.1 45 80% 29.93 1013.4
18 11:56 W 14 G 22 10.00 Fair CLR 46.9 43 86% 42 29.92 1013.2
18 10:56 W 16 10.00 Fair CLR 46 43 89% 40 29.91 1012.9
18 09:56 W 10 10.00 Fair CLR 46 43 50 44.1 89% 42 29.91 1012.8
18 08:56 SW 9 10.00 Fair CLR 48.9 42.1 77% 45 29.9 1012.6
18 07:56 SW 9 10.00 Fair CLR 46.9 42.1 83% 43 29.9 1012.4
18 06:56 W 10 10.00 Fair CLR 45 41 86% 40 29.9 1012.4
18 05:56 W 15 G 20 10.00 Fair CLR 45 41 86% 39 29.89 1012.2
18 04:56 W 16 10.00 Fair CLR 44.1 41 89% 37 29.89 1012.3
18 03:56 SW 15 G 22 10.00 Fair CLR 46 39 48.9 43 77% 40 29.89 1012.3
18 02:56 SW 15 10.00 Fair CLR 48.9 37.9 66% 44 29.89 1012.3
18 01:56 W 14 10.00 Fair CLR 45 41 86% 39 29.9 1012.5
17 23:56 W 18 10.00 A Few Clouds FEW120 45 43 93% 38 29.9 1012.5
17 22:56 W 15 10.00 A Few Clouds FEW120 44.1 43 96% 38 29.91 1012.7
17 21:56 W 18 10.00 Overcast OVC110 44.1 42.1 48.9 44.1 93% 37 29.9 1012.5
17 20:56 W 20 10.00 Overcast OVC120 45 43 93% 38 29.9 1012.5
17 19:56 W 21 10.00 Partly Cloudy and Breezy SCT120 46.9 43 86% 40 29.91 1012.7
17 18:56 W 16 10.00 Fair CLR 46.9 43 86% 41 29.9 1012.5
17 17:56 W 21 10.00 Fair and Breezy CLR 48 43 83% 41 29.89 1012.2
17 16:56 W 21 10.00 Fair and Breezy CLR 48 44.1 86% 41 29.89 1012.2
Date Time (akdt) Wind (mph) Vis. (mi.) Weather Sky Cond. Air Dwpt Max. Min. Relative Humidity Wind Chill (°F) Heat Index (°F) altimeter (in) sea level (mb) 1 hr 3 hr 6 hr
6 hour
Temperature (ºF) Pressure Precipitation (in)